[[{"header":{"parameterUnit":"m.s-1","parameterCategory":1,"la1":30.2991,"la2":30.254,"lo1":-89.0895,"lo2":-89.0444,"dy":0.0017,"dx":0.0017,"nx":28,"ny":28,"refTime":"2025-01-04T03:00:00:Z","depth":0,"parameterNumber":2,"parameterNumberName":"U-component_of_WINDS"},"data":[0,0,0,0,0,0,0,0,0,0,0,0,0,0,0,0,0,0,0,0,0,0,0,0,0,0,0,0,0,0,0,0,0,0,0,0,0,0,0,0,0,0,0,0,0,0,0,0,0,0,0,0,0,0,0,0,0,0,1.8086,1.8086,0,1.8067,1.8066,1.8066,1.8018,1.8017,1.8016,1.8015,1.7996,1.7997,1.7997,0,0,0,0,0,0,0,0,0,0,0,0,0,1.8083,1.8083,1.8086,1.8086,1.8085,1.8067,1.8066,1.8066,1.8019,1.8017,1.8016,1.8015,1.7996,1.7997,1.7997,0,0,0,0,0,0,0,0,0,0,0,0,0,1.8076,1.8083,1.8086,1.8059,1.8057,1.8067,1.8066,1.8066,1.8019,1.8017,1.8016,1.8014,1.7996,1.7997,1.7997,1.8031,0,0,1.7999,1.7999,0,0,0,0,0,0,0,0,1.8076,1.8076,1.8064,1.8061,1.8058,1.8043,1.8058,1.8054,1.8019,1.8033,1.8015,1.8014,1.8013,1.8012,1.8012,1.803,1.803,1.7999,1.8,1.8,1.8,0,0,0,0,0,0,0,1.8077,1.8077,1.8078,1.8063,1.806,1.8049,1.8046,1.8057,1.8032,1.8032,1.8028,1.8027,1.8012,1.8012,1.8011,1.8029,1.7999,1.8,1.8,1.8,1.8075,1.8077,0,0,0,0,0,0,1.8081,1.8077,1.8079,1.8078,1.8064,1.805,1.8047,1.805,1.8032,1.8027,1.8028,1.8025,1.8011,1.8011,1.801,1.8049,1.8,1.8,1.8001,1.8074,1.8076,1.8077,0,0,0,0,0,0,1.8081,1.8082,1.808,1.8077,1.8075,1.8052,1.8055,1.805,1.805,1.8029,1.8024,1.8033,1.801,1.8009,1.8027,1.8048,1.8001,1.8001,1.8072,1.8074,1.8077,1.8127,0,0,0,0,0,0,1.8081,1.8082,1.8094,1.8077,1.8076,1.8096,1.8056,1.8051,1.8051,1.8047,1.8032,1.8028,1.8009,1.8026,1.8027,1.8048,1.8002,1.807,1.8073,1.8076,1.8124,1.8131,1.8138,0,0,0,0,0,1.8081,1.8109,1.8095,1.8096,1.8091,1.8097,1.8096,1.8074,1.8053,1.8066,1.8052,1.8028,1.8046,1.8028,1.8029,1.805,1.8068,1.8072,1.8076,1.8121,1.813,1.8138,0,0,0,0,0,0,1.813,1.8107,1.8091,1.8114,1.8108,1.8089,1.8104,1.8084,1.8084,1.8079,1.8051,1.8048,1.8069,1.8062,1.8042,1.8083,1.8053,1.8057,1.8087,1.8096,1.8103,1.8104,1.8002,0,0,0,0,0,1.8143,1.815,1.813,1.8152,1.815,1.8128,1.813,1.8113,1.8105,1.8103,1.809,1.8084,1.8088,1.8092,1.8094,1.8123,1.8119,1.8138,1.8145,1.8151,1.8155,1.817,1.8178,1.8089,1.8089,1.8089,0,0,1.8171,1.8159,1.8165,1.8162,1.8155,1.8163,1.8126,1.8136,1.8142,1.8104,1.8119,1.8111,1.8102,1.8125,1.8135,1.8119,1.8178,1.8155,1.816,1.8161,1.8174,1.8183,1.819,1.8092,1.8091,1.8091,0,0,1.8225,1.8217,1.8235,1.8229,1.822,1.8205,1.8209,1.8194,1.8186,1.8201,1.8173,1.818,1.8188,1.8183,1.8182,1.8236,1.8214,1.8238,1.8274,1.8289,1.8296,1.8302,1.8322,1.8329,1.8241,1.8242,1.8242,0,1.826,1.8271,1.8247,1.8259,1.8258,1.8225,1.8243,1.8239,1.8231,1.8232,1.8215,1.8224,1.8216,1.8237,1.8251,1.8251,1.8255,1.8239,1.8297,1.8303,1.8308,1.8326,1.8334,1.8244,1.8244,1.8244,1.8243,0,1.8315,1.8324,1.8339,1.8333,1.8334,1.8349,1.8328,1.8332,1.8315,1.8303,1.8319,1.8308,1.8308,1.8312,1.8296,1.8332,1.8323,1.8302,1.8272,1.832,1.8337,1.8343,1.8249,1.8248,1.8247,1.8246,0,0,1.8398,1.8379,1.8385,1.8382,1.8369,1.8375,1.839,1.839,1.8394,1.839,1.8402,1.841,1.839,1.8389,1.8372,1.8385,1.8429,1.8362,1.8362,1.8375,1.8469,1.8485,1.8493,1.8415,1.8416,1.8417,1.847,0,1.8449,1.8472,1.8451,1.8478,1.8486,1.8455,1.8467,1.8461,1.845,1.8455,1.8443,1.8449,1.8423,1.8422,1.8434,1.8421,1.8448,1.8417,1.8426,1.8426,1.8428,1.8502,1.8518,1.8568,1.8476,1.8477,1.8478,0,1.8512,1.8511,1.8539,1.8526,1.8528,1.854,1.8538,1.8544,1.8537,1.8528,1.8527,1.8507,1.852,1.8491,1.8509,1.8489,1.8492,1.8486,1.8488,1.8487,1.8455,1.8503,1.8583,1.8591,1.8488,1.8487,1.8486,0,1.8569,1.8575,1.8593,1.8591,1.8576,1.8585,1.858,1.8571,1.8573,1.8572,1.8573,1.8574,1.8575,1.8576,1.8557,1.8537,1.8578,1.8547,1.8571,1.8572,1.8581,1.858,1.8662,1.8583,1.8583,1.8583,1.8582,0,1.8628,1.8647,1.8619,1.863,1.865,1.8626,1.8646,1.8637,1.863,1.8639,1.8613,1.8622,1.8596,1.8602,1.8587,1.8605,1.8606,1.8599,1.8595,1.8601,1.8602,1.8602,1.8598,1.8585,1.8584,1.8584,1.8583,0,1.8696,1.8678,1.8695,1.868,1.8677,1.8692,1.8679,1.8689,1.8677,1.8688,1.869,1.867,1.8677,1.8658,1.8661,1.8651,1.8677,1.8667,1.868,1.8676,1.8702,1.87,1.8786,1.8796,1.8711,1.8712,1.8712,0,1.8734,1.8748,1.8734,1.8739,1.8734,1.8741,1.8743,1.8721,1.8724,1.8718,1.8728,1.8733,1.8735,1.8746,1.8733,1.8736,1.8725,1.8756,1.8726,1.8732,1.8726,1.8725,1.8727,1.8762,1.8763,1.8764,1.8764,0,1.8805,1.8795,1.8799,1.88,1.8803,1.8803,1.8801,1.8806,1.8782,1.8787,1.8793,1.8795,1.8799,1.8803,1.8803,1.8798,1.8777,1.8774,1.878,1.8786,1.8793,1.879,1.8696,1.8772,1.8771,1.8771,1.877,1.877,1.8858,1.8869,1.8862,1.8867,1.8863,1.8862,1.8871,1.886,1.8865,1.8866,1.8853,1.8862,1.8856,1.8854,1.8851,1.8858,1.8844,1.8852,1.8854,1.8857,1.8861,1.8792,1.8858,1.8858,1.8857,1.8857,1.8857,0,1.8927,1.8921,1.8927,1.8925,1.8929,1.891,1.8907,1.8912,1.8921,1.8917,1.892,1.8928,1.8932,1.892,1.8923,1.8931,1.8922,1.8933,1.8932,1.8931,1.8873,1.8868,1.894,1.894,1.894,1.894,1.894,1.894,1.8963,1.8981,1.8971,1.8987,1.8981,1.899,1.899,1.8989,1.8986,1.8996,1.9,1.8992,1.8985,1.8987,1.8991,1.8987,1.8989,1.9004,1.8997,1.8943,1.8935,1.8927,1.8922,1.9004,1.9004,1.9053,1.9054,1.9054]},{"header":{"parameterUnit":"m.s-1","parameterCategory":1,"la1":30.2991,"la2":30.254,"lo1":-89.0895,"lo2":-89.0444,"dy":0.0017,"dx":0.0017,"nx":28,"ny":28,"refTime":"2025-01-04T03:00:00:Z","depth":0,"parameterNumber":3,"parameterNumberName":"V-component_of_WINDS"},"data":[0,0,0,0,0,0,0,0,0,0,0,0,0,0,0,0,0,0,0,0,0,0,0,0,0,0,0,0,0,0,0,0,0,0,0,0,0,0,0,0,0,0,0,0,0,0,0,0,0,0,0,0,0,0,0,0,0,0,6.473,6.4731,0,6.4808,6.4809,6.481,6.4792,6.479,6.4789,6.4787,6.4865,6.4868,6.4871,0,0,0,0,0,0,0,0,0,0,0,0,0,6.4562,6.4565,6.473,6.4731,6.4732,6.4808,6.4809,6.481,6.4792,6.479,6.4788,6.4787,6.4863,6.4868,6.4872,0,0,0,0,0,0,0,0,0,0,0,0,0,6.4637,6.4566,6.473,6.4732,6.4733,6.4808,6.4809,6.4811,6.4792,6.479,6.4788,6.4786,6.4862,6.4867,6.4872,6.4949,0,0,6.4888,6.489,0,0,0,0,0,0,0,0,6.4633,6.4643,6.4731,6.4732,6.4734,6.4788,6.4778,6.4857,6.4793,6.477,6.4787,6.4785,6.4841,6.4848,6.4867,6.4952,6.4956,6.4888,6.4892,6.4894,6.4895,0,0,0,0,0,0,0,6.4628,6.464,6.4761,6.4732,6.4734,6.4728,6.4736,6.4793,6.4817,6.4772,6.4771,6.478,6.4841,6.4862,6.4869,6.4957,6.4888,6.4893,6.4896,6.4898,6.5109,6.5111,0,0,0,0,0,0,6.4622,6.4635,6.4759,6.4763,6.4677,6.4733,6.4742,6.4773,6.4816,6.4821,6.4782,6.4779,6.4854,6.4863,6.4871,6.4964,6.4894,6.4899,6.4902,6.5106,6.5109,6.5112,0,0,0,0,0,0,6.4618,6.4633,6.4755,6.4699,6.4714,6.4738,6.4773,6.4776,6.4797,6.4824,6.4828,6.48,6.4853,6.4864,6.493,6.4967,6.4901,6.4906,6.5103,6.5107,6.5111,6.5151,0,0,0,0,0,0,6.4613,6.4632,6.4662,6.47,6.4717,6.4814,6.4775,6.4779,6.4806,6.4803,6.4841,6.4846,6.4852,6.4922,6.4935,6.4973,6.491,6.51,6.5105,6.511,6.5146,6.5156,6.5163,0,0,0,0,0,6.4608,6.4669,6.4664,6.4679,6.4756,6.4816,6.4826,6.4833,6.4809,6.4839,6.4856,6.4844,6.496,6.4929,6.4943,6.4983,6.5098,6.5104,6.5109,6.5143,6.5154,6.5163,0,0,0,0,0,0,6.4634,6.4674,6.4668,6.4745,6.4777,6.4813,6.4851,6.4844,6.4883,6.4879,6.4885,6.4894,6.4961,6.4978,6.4943,6.5059,6.5026,6.5034,6.5046,6.5057,6.5065,6.506,6.4914,0,0,0,0,0,6.4649,6.4695,6.4728,6.4792,6.4808,6.4827,6.4853,6.4856,6.4889,6.4903,6.4925,6.4957,6.5001,6.5029,6.5071,6.5148,6.5156,6.5182,6.5191,6.5198,6.5206,6.5248,6.526,6.5131,6.513,6.513,0,0,6.468,6.4708,6.4736,6.4798,6.4823,6.4871,6.4839,6.489,6.4925,6.491,6.4975,6.4992,6.5028,6.51,6.5132,6.5116,6.5243,6.5205,6.521,6.5215,6.5255,6.5267,6.5278,6.5134,6.5134,6.5133,0,0,6.4761,6.4786,6.4843,6.4869,6.4909,6.4921,6.4934,6.4971,6.4982,6.5047,6.5037,6.5077,6.5152,6.5179,6.5202,6.5292,6.5283,6.5306,6.5351,6.5392,6.5402,6.5411,6.5444,6.5456,6.5313,6.5313,6.5313,0,6.4794,6.4866,6.4873,6.4926,6.4953,6.4942,6.4999,6.5024,6.5074,6.5093,6.5074,6.5168,6.5192,6.527,6.5292,6.5311,6.5326,6.5302,6.54,6.5409,6.5418,6.545,6.5462,6.5316,6.5315,6.5315,6.5315,0,6.4906,6.4956,6.4996,6.5047,6.5078,6.5133,6.5147,6.5178,6.5177,6.519,6.5256,6.5284,6.5331,6.5349,6.5349,6.5427,6.5416,6.5399,6.5365,6.5433,6.5463,6.5475,6.5319,6.5319,6.5318,6.5317,0,0,6.5007,6.506,6.5075,6.5098,6.5141,6.5179,6.5232,6.5279,6.5306,6.534,6.5386,6.5449,6.5433,6.5459,6.5461,6.5497,6.5568,6.5475,6.5476,6.5493,6.5657,6.5672,6.5686,6.5561,6.5564,6.5565,6.5655,0,6.5093,6.5189,6.5196,6.5283,6.5329,6.5319,6.5365,6.5396,6.5409,6.545,6.5464,6.551,6.5484,6.55,6.5535,6.5552,6.5602,6.5546,6.5603,6.5605,6.5596,6.5701,6.5716,6.5799,6.5666,6.5668,6.567,0,6.5206,6.5246,6.5338,6.5374,6.5393,6.5435,6.5479,6.5518,6.5552,6.5559,6.5588,6.5585,6.5639,6.5602,6.5677,6.5638,6.5662,6.5674,6.5677,6.5684,6.5643,6.5712,6.5826,6.5839,6.5688,6.5686,6.5685,0,6.5273,6.5348,6.5413,6.5433,6.5476,6.5506,6.5525,6.5557,6.5585,6.5622,6.5641,6.5683,6.5707,6.574,6.5748,6.572,6.5823,6.5786,6.583,6.583,6.5854,6.5853,6.5975,6.5866,6.5866,6.5866,6.5866,0,6.5369,6.5426,6.5444,6.5484,6.5547,6.5553,6.5615,6.5632,6.566,6.5702,6.5695,6.5735,6.5743,6.5784,6.579,6.5851,6.5861,6.5868,6.587,6.587,6.5869,6.5887,6.5882,6.5869,6.5869,6.5868,6.5867,0,6.5455,6.5469,6.5539,6.5575,6.5585,6.563,6.5659,6.5697,6.5709,6.5763,6.5776,6.5795,6.5843,6.5854,6.591,6.5915,6.5987,6.5982,6.5977,6.5977,6.6021,6.6017,6.6159,6.6179,6.6057,6.6058,6.6059,0,6.5516,6.556,6.56,6.5629,6.565,6.5695,6.5724,6.5731,6.5761,6.5803,6.5836,6.5883,6.5921,6.5998,6.6016,6.6059,6.6056,6.6103,6.6062,6.6062,6.6058,6.6056,6.6061,6.6111,6.6112,6.6113,6.6114,0,6.5624,6.5629,6.5672,6.5717,6.5752,6.5787,6.5821,6.5844,6.5856,6.589,6.5939,6.5969,6.6027,6.6074,6.6117,6.6135,6.6127,6.6127,6.6139,6.6141,6.6137,6.6141,6.5999,6.6124,6.6123,6.6122,6.6122,6.6121,6.57,6.5739,6.5774,6.5821,6.5848,6.5879,6.5917,6.5934,6.5976,6.6025,6.6026,6.608,6.6112,6.6169,6.619,6.6231,6.6217,6.6235,6.624,6.6245,6.6249,6.6129,6.6239,6.6239,6.6238,6.6238,6.6238,0,6.5809,6.5831,6.5875,6.5923,6.596,6.5949,6.5986,6.6018,6.6066,6.6096,6.6135,6.6191,6.6236,6.6258,6.6302,6.6332,6.6329,6.6343,6.6342,6.6346,6.6259,6.6244,6.6345,6.6345,6.6345,6.6345,6.6345,6.6345,6.587,6.5936,6.5945,6.6022,6.6043,6.6097,6.6119,6.6148,6.6173,6.6237,6.6275,6.6289,6.6316,6.6362,6.6403,6.6408,6.6425,6.6442,6.6445,6.6363,6.6352,6.6342,6.6329,6.6445,6.6445,6.6529,6.653,6.653]}]]